Change the Weather History Date:

Sunday, December 1, 2013

  Actual Average Record
Temperature  
Mean Temperature 82 °F -  
Max Temperature 90 °F 86 °F 96 °F (1997)
Min Temperature 73 °F 71 °F 68 °F (2007)
Cooling Degree Days 16    
Growing Degree Days 32 (Base 50)    
Moisture  
Dew Point 67 °F    
Average Humidity 62    
Maximum Humidity 83    
Minimum Humidity 39    
Precipitation  
Precipitation 0.00 in 0.02 in - ()
Sea Level Pressure  
Sea Level Pressure 29.93 in    
Wind  
Wind Speed 4 mph ()    
Max Wind Speed 9 mph    
Max Gust Speed -    
Visibility 6.2 miles    
Events      
Averages and records for this station are not official NWS values.
T = Trace of Precipitation, MM = Missing Value Source: Averaged Metar Reports

Daily Weather History Graph

Daily Weather History Graph

Search for Another Location

Airport or City:

Trip Planner

Search our weather history database for the weather conditions in past years. The results will help you decide how hot, cold, wet, or windy it might be!

Date:

Astronomy

Dec. 01, 2013 Rise Set
Actual Time 6:25 AM ICT 5:47 PM ICT
Civil Twilight 6:02 AM ICT 6:10 PM ICT
Nautical Twilight 5:36 AM ICT 6:36 PM ICT
Astronomical Twilight 5:10 AM ICT 7:03 PM ICT
Moon 4:24 AM ICT (12/1) 4:18 PM ICT (12/1)
Length of Visible Light 12h 07m
Length of Day
11h 22m
Waning Crescent, 5% of the Moon is Illuminated
Dec 1
Waning Crescent
Dec 3
New
Dec 9
First Quarter
Dec 17
Full
Dec 25
Last Quarter

Hourly Weather History & Observations

Time (ICT) Temp. Heat Index Dew Point Humidity Pressure Visibility Wind Dir Wind Speed Gust Speed Precip Events Conditions
12:00 AM 77.0 °F - 68.0 °F 74% 29.95 in - Calm Calm - N/A   Clear
12:30 AM 77.0 °F - 68.0 °F 74% 29.95 in - Calm Calm - N/A   Clear
1:00 AM 77 °F - 67 °F 65% 29.94 in 6 mi Calm Calm - -   Clear
1:00 AM 77.0 °F - 68.0 °F 74% 29.95 in - Calm Calm - N/A   Clear
1:30 AM 75.2 °F - 68.0 °F 78% 29.92 in - Calm Calm - N/A   Clear
2:00 AM 75.2 °F - 68.0 °F 78% 29.92 in - Calm Calm - N/A   Clear
2:30 AM 77.0 °F - 68.0 °F 74% 29.92 in - Calm Calm - N/A   Clear
3:00 AM 75.2 °F - 68.0 °F 78% 29.89 in - NNW 5.8 mph - N/A   Clear
3:30 AM 75.2 °F - 68.0 °F 78% 29.89 in - North 3.5 mph - N/A   Clear
4:00 AM 75 °F - 69 °F 75% 29.91 in 6 mi North 4.6 mph - -   Clear
4:00 AM 75.2 °F - 68.0 °F 78% 29.89 in - North 4.6 mph - N/A   Clear
4:30 AM 75.2 °F - 68.0 °F 78% 29.89 in - NNE 3.5 mph - N/A   Clear
5:00 AM 75.2 °F - 68.0 °F 78% 29.89 in - NE 4.6 mph - N/A   Clear
5:30 AM 73.4 °F - 68.0 °F 83% 29.92 in - North 3.5 mph - N/A   Clear
6:00 AM 73.4 °F - 66.2 °F 78% 29.92 in - NNE 4.6 mph - N/A   Clear
6:30 AM 73.4 °F - 66.2 °F 78% 29.92 in - North 4.6 mph - N/A   Clear
7:00 AM 74 °F - 66 °F 68% 29.94 in 6 mi NE 4.6 mph - -   Scattered Clouds
7:00 AM 73.4 °F - 66.2 °F 78% 29.92 in - NE 4.6 mph - N/A   Clear
7:30 AM 75.2 °F - 66.2 °F 73% 29.95 in - North 8.1 mph - N/A   Clear
8:00 AM 75.2 °F - 66.2 °F 73% 29.95 in - NNE 8.1 mph - N/A   Clear
8:30 AM 77.0 °F - 66.2 °F 69% 29.98 in - NNE 8.1 mph - N/A   Clear
9:00 AM 77.0 °F - 64.4 °F 65% 29.98 in - NNE 6.9 mph - N/A   Clear
9:30 AM 77.0 °F - 64.4 °F 65% 29.98 in - NNE 6.9 mph - N/A   Clear
10:00 AM 82.4 °F 84.6 °F 66.2 °F 58% 29.98 in - NNE 5.8 mph - N/A   Clear
10:30 AM 82.4 °F 84.6 °F 66.2 °F 58% 29.98 in - NNE 5.8 mph - N/A   Clear
11:00 AM 84.2 °F 86.6 °F 66.2 °F 55% 29.98 in 6.2 mi ENE 6.9 mph - N/A   Scattered Clouds
11:30 AM 86.0 °F 88.2 °F 66.2 °F 51% 29.98 in 6.2 mi ENE 5.8 mph - N/A   Scattered Clouds
12:00 PM 86.0 °F 89.4 °F 68.0 °F 55% 29.95 in 6.2 mi SSE 5.8 mph - N/A   Scattered Clouds
12:30 PM 86.0 °F 89.4 °F 68.0 °F 55% 29.95 in 6.2 mi ENE 5.8 mph - N/A   Scattered Clouds
1:00 PM 89 °F - 67 °F 39% 29.93 in 6 mi East 6.9 mph - -   Scattered Clouds
1:00 PM 87.8 °F 91.4 °F 68.0 °F 52% 29.92 in 6.2 mi East 5.8 mph - N/A   Scattered Clouds
1:30 PM 87.8 °F 91.4 °F 68.0 °F 52% 29.89 in 6.2 mi East 5.8 mph - N/A   Scattered Clouds
2:00 PM 89.6 °F 92.2 °F 66.2 °F 46% 29.89 in 6.2 mi ESE 9.2 mph - N/A   Scattered Clouds
2:30 PM 89.6 °F 92.2 °F 66.2 °F 46% 29.89 in 6.2 mi ENE 9.2 mph - N/A   Scattered Clouds
3:00 PM 91.4 °F 94.0 °F 66.2 °F 43% 29.86 in 6.2 mi ENE 6.9 mph - N/A   Scattered Clouds
3:30 PM 91.4 °F 94.0 °F 66.2 °F 43% 29.86 in 6.2 mi East 9.2 mph - N/A   Scattered Clouds
4:00 PM 89.6 °F 92.2 °F 66.2 °F 46% 29.86 in 6.2 mi East 6.9 mph - N/A   Scattered Clouds
4:30 PM 89.6 °F 92.2 °F 66.2 °F 46% 29.86 in 6.2 mi NNE 6.9 mph - N/A   Scattered Clouds
5:00 PM 89.6 °F 91.1 °F 64.4 °F 43% 29.86 in 6.2 mi NE 5.8 mph - N/A   Scattered Clouds
5:30 PM 87.8 °F 89.4 °F 64.4 °F 46% 29.89 in 6.2 mi East 5.8 mph - N/A   Scattered Clouds
6:00 PM 86.0 °F 88.2 °F 66.2 °F 51% 29.89 in 6.2 mi NNE 9.2 mph - N/A   Scattered Clouds
6:30 PM 84.2 °F 86.6 °F 66.2 °F 55% 29.89 in 6.2 mi ENE 6.9 mph - N/A   Mostly Cloudy
7:00 PM 85 °F - 66 °F 44% 29.93 in 6 mi East 5.8 mph - -   Scattered Clouds
7:00 PM 84.2 °F 86.6 °F 66.2 °F 55% 29.92 in 6.2 mi East 5.8 mph - N/A   Mostly Cloudy
7:30 PM 84.2 °F 86.6 °F 66.2 °F 55% 29.95 in 6.2 mi East 3.5 mph - N/A   Mostly Cloudy
8:30 PM 80.6 °F 83.2 °F 68.0 °F 65% 29.95 in 6.2 mi NNE 3.5 mph - N/A   Mostly Cloudy
9:00 PM 80.6 °F 83.2 °F 68.0 °F 65% 29.95 in 6.2 mi NNE 3.5 mph - N/A   Mostly Cloudy
9:30 PM 80.6 °F 83.2 °F 68.0 °F 65% 29.98 in 6.2 mi ENE 9.2 mph - N/A   Mostly Cloudy
10:00 PM 81 °F - 65 °F 49% 30.00 in 6 mi ENE 5.8 mph - -   Scattered Clouds
10:00 PM 80.6 °F 82.3 °F 64.4 °F 58% 29.98 in 6.2 mi ENE 4.6 mph - N/A   Mostly Cloudy
10:30 PM 80.6 °F 82.3 °F 64.4 °F 58% 29.98 in 6.2 mi ENE 4.6 mph - N/A   Mostly Cloudy
11:00 PM 78.8 °F - 64.4 °F 61% 29.98 in 6.2 mi NE 5.8 mph - N/A   Mostly Cloudy
11:30 PM 78.8 °F - 64.4 °F 61% 29.98 in 6.2 mi NE 5.8 mph - N/A   Mostly Cloudy